Torna al catalogo

STARLINK-38261

AttivoComunicazioniSSO
NORAD 100309·PAYLOAD·🇺🇸 United States

Lanciato Aug 12, 2026 da Vandenberg Space Force Base

Loading…

Prossimi Passaggi (prossime 24 ore)

TLE

AggiornatoSource: Space-Track

Epoca: Sep 14, 2026, 14:19 UTC

1 A0309U 26184J   26257.59663931  .00014463  00000-0  44985-3 0  9998
2 A0309  97.2839 122.7677 0001230  77.8288 282.3092 15.33416465  6459

Traccia STARLINK-38261 in tempo reale con AllMySat

Download on the App Store